This is the latest recevied weather packets stored in our database for station/object N2ZVN. If no packets are shown the sender has not sent any weather packets the latest 10 day(s).
| Time | Temp. | Humidity | Pressure | Rain* | Wind** | Luminosity | Snow |
|---|---|---|---|---|---|---|---|
| 1777477136 | 11.11° C | 70% | 1011.7 hPa | 0 mm | - | 206 W/m² | - |
| 1777476833 | 11.11° C | 71% | 1011.9 hPa | 0 mm | - | 245 W/m² | - |
| 1777476530 | 10.56° C | 72% | 1012 hPa | 0 mm | - | 249 W/m² | - |
| 1777476226 | 10.56° C | 73% | 1012.3 hPa | 0 mm | - | 161 W/m² | - |
| 1777475922 | 10.56° C | 72% | 1012.5 hPa | 0 mm | - | 95 W/m² | - |
| 1777475618 | 10.56° C | 71% | 1012.6 hPa | 0 mm | - | 99 W/m² | - |
| 1777475315 | 10.56° C | 72% | 1012.6 hPa | 0 mm | - | 78 W/m² | - |
| 1777475010 | 10.56° C | 73% | 1012.5 hPa | 0 mm | - | 84 W/m² | - |
| 1777474707 | 10° C | 72% | 1012.7 hPa | 0 mm | - | 88 W/m² | - |
| 1777474403 | 10° C | 71% | 1012.7 hPa | 0 mm | - | 97 W/m² | - |
| 1777474100 | 10° C | 73% | 1012.6 hPa | 0 mm | - | 153 W/m² | - |
| 1777473798 | 10° C | 71% | 1012.9 hPa | 0 mm | - | 70 W/m² | - |
| 1777473494 | 10° C | 72% | 1012.9 hPa | 0 mm | - | 67 W/m² | - |
| 1777473190 | 10° C | 74% | 1012.9 hPa | 0 mm | - | 67 W/m² | - |
| 1777472887 | 10° C | 73% | 1012.7 hPa | 0 mm | - | 65 W/m² | - |
| 1777472583 | 10.56° C | 72% | 1013 hPa | 0 mm | - | 51 W/m² | - |
| 1777472280 | 10.56° C | 72% | 1012.7 hPa | 0 mm | - | 59 W/m² | - |
| 1777471976 | 10.56° C | 72% | 1012.7 hPa | 0 mm | - | 54 W/m² | - |
| 1777471672 | 10.56° C | 71% | 1012.6 hPa | 0 mm | - | 45 W/m² | - |
| 1777471369 | 10.56° C | 70% | 1012.6 hPa | 0 mm | - | 46 W/m² | - |
| 1777471065 | 10.56° C | 70% | 1012.8 hPa | 0 mm | - | 45 W/m² | - |
| 1777470762 | 10.56° C | 70% | 1012.9 hPa | 0 mm | - | 39 W/m² | - |
| 1777470459 | 10.56° C | 71% | 1012.8 hPa | 0 mm | - | 56 W/m² | - |
| 1777470155 | 10.56° C | 72% | 1012.3 hPa | 0 mm | - | 51 W/m² | - |
| 1777469852 | 10.56° C | 72% | 1012.3 hPa | 0 mm | - | 44 W/m² | - |
* Rain latest hour (hover to see other rain measurements)
** Current wind speed in m/s (hover to see current wind gust speed)